This is the latest recevied weather packets stored in our database for station/object KQ4OSL. If no packets are shown the sender has not sent any weather packets the latest 1 day(s).
| Time | Temp. | Humidity | Pressure | Rain* | Wind** | Luminosity | Snow |
|---|---|---|---|---|---|---|---|
| 1777983272 | 10.56° C | 94% | 1016.9 hPa | 0 mm | 0.89 m/s, 300° | 38 W/m² | - |
| 1777982967 | 10° C | 98% | 1016.5 hPa | 0 mm | 0 m/s | 100 W/m² | - |
| 1777982664 | 8.89° C | 99% | 1016.8 hPa | 0 mm | 0.45 m/s, 291° | 79 W/m² | - |
| 1777982363 | 8.89° C | 98% | 1016.3 hPa | 0 mm | 0 m/s | 37 W/m² | - |
| 1777982060 | 8.33° C | 99% | 1016.4 hPa | 0 mm | 0 m/s | 25 W/m² | - |
| 1777981758 | 8.33° C | 99% | 1016.5 hPa | 0 mm | 0 m/s | 26 W/m² | - |
| 1777981454 | 8.33° C | 99% | 1016.4 hPa | 0 mm | 0 m/s | 22 W/m² | - |
| 1777981150 | 7.78° C | 99% | 1016.5 hPa | 0 mm | 0 m/s | 22 W/m² | - |
| 1777980847 | 7.78° C | 99% | 1016.3 hPa | 0 mm | 0 m/s | 19 W/m² | - |
| 1777980542 | 7.78° C | 98% | 1016.3 hPa | 0 mm | 0 m/s | 17 W/m² | - |
| 1777980241 | 7.78° C | 98% | 1016.2 hPa | 0 mm | 0 m/s | 12 W/m² | - |
| 1777979936 | 8.33° C | 99% | 1016 hPa | 0 mm | 0 m/s | 12 W/m² | - |
| 1777979631 | 8.33° C | 99% | 1015.9 hPa | 0 mm | 0 m/s | 12 W/m² | - |
| 1777979327 | 7.78° C | 99% | 1016.1 hPa | 0 mm | 0 m/s | 11 W/m² | - |
| 1777979025 | 7.78° C | 99% | 1016.2 hPa | 0 mm | 0 m/s | 8 W/m² | - |
| 1777978721 | 7.78° C | 99% | 1016 hPa | 0 mm | 0 m/s | 5 W/m² | - |
| 1777978418 | 7.78° C | 98% | 1016.1 hPa | 0 mm | 0 m/s | 4 W/m² | - |
| 1777978114 | 7.78° C | 98% | 1015.8 hPa | 0 mm | 0 m/s | 2 W/m² | - |
| 1777977812 | 7.78° C | 98% | 1016 hPa | 0 mm | 0 m/s | 1 W/m² | - |
| 1777977507 | 7.78° C | 98% | 1016 hPa | 0 mm | 0 m/s | 1 W/m² | - |
| 1777977206 | 7.78° C | 98% | 1016.1 hPa | 0 mm | 0 m/s | 0 W/m² | - |
| 1777976903 | 8.33° C | 98% | 1016.2 hPa | 0 mm | 0 m/s | 0 W/m² | - |
| 1777976600 | 8.33° C | 99% | 1016.1 hPa | 0 mm | 0 m/s | 0 W/m² | - |
| 1777976295 | 7.78° C | 99% | 1016 hPa | 0 mm | 0 m/s | 0 W/m² | - |
| 1777975990 | 7.78° C | 98% | 1016.2 hPa | 0 mm | 0 m/s | 0 W/m² | - |
* Rain latest hour (hover to see other rain measurements)
** Current wind speed in m/s (hover to see current wind gust speed)